Temperature
18 18 18 18 18 18 18 18 18 18 18 18 18 18 18 18 18 18 18 18 18 18 18 18 18 17 17 17 17 17 17 17 17 17 17 17 17 17 16 16 16 16 16
19 18 18 18 18 18 18 18 18 18 18 18 18 18 18 18 18 18 18 18 18 18 18 18 18 18 18 17 17 17 17 17 17 17 17 17 17 17 17 16 16 16 16
19 18 18 18 18 18 18 18 18 18 18 18 18 18 18 18 18 18 18 18 18 18 18 18 18 18 18 18 17 17 17 17 17 17 17 17 17 17 17 16 16 16 16
19 19 18 18 18 18 18 18 18 18 18 18 18 18 18 18 18 18 18 18 18 18 18 18 18 18 18 18 18 18 18 18 17 17 17 17 17 17 17 17 16 16 16
19 19 19 19 18 18 18 18 18 18 18 18 18 19 19 19 19 19 18 18 18 18 18 18 18 18 18 18 18 18 18 18 18 17 17 17 17 17 17 17 16 16 16
19 19 19 18 18 18 18 18 18 18 18 18 18 19 19 19 19 19 19 19 19 18 18 18 18 18 18 18 18 18 18 18 18 17 17 17 17 17 17 17 16 16 16
19 19 18 18 18 18 18 18 18 18 18 18 19 19 19 19 19 19 19 19 19 18 18 18 18 18 18 18 18 18 18 18 18 17 17 17 17 17 17 17 16 16 16
19 19 19 19 18 18 18 18 18 18 18 18 18 18 18 19 19 19 19 19 19 19 18 18 18 18 18 18 18 18 18 17 17 17 17 17 17 17 17 17 16 16 16
19 19 19 19 18 18 18 18 18 18 18 18 18 18 18 18 18 19 19 19 19 19 18 18 18 18 18 18 18 18 18 17 17 17 17 17 17 17 17 16 16 16 16
19 19 19 19 18 18 18 18 18 18 18 18 18 18 18 18 18 18 18 19 19 19 18 18 18 18 18 18 18 17 17 17 17 17 17 17 17 17 16 16 16 16 16
19 19 19 19 19 18 18 18 18 18 18 18 18 18 18 18 18 18 18 18 18 19 18 18 18 18 18 18 18 17 17 17 17 17 17 17 16 16 16 16 16 16 16
19 19 19 19 19 18 18 18 18 18 18 18 18 18 18 18 18 18 18 18 18 18 18 19 19 18 18 18 18 17 17 17 17 17 17 17 16 16 16 16 16 16 16
19 19 19 19 19 18 18 18 18 18 18 18 18 18 18 18 18 18 18 18 18 18 18 18 18 18 18 18 18 17 17 17 17 17 17 17 16 16 16 16 16 16 16
19 19 19 18 18 18 18 18 18 18 18 17 17 17 17 17 18 18 18 17 17 18 18 18 18 18 18 18 18 17 17 17 17 17 17 17 17 16 16 16 16 16 16
19 19 18 18 18 18 18 18 18 18 17 17 17 17 17 17 17 17 17 17 17 17 17 18 18 18 18 18 17 17 17 17 17 17 17 17 16 16 16 16 16 16 16
19 19 18 18 18 18 18 18 18 18 17 17 17 17 17 17 17 17 17 17 17 17 17 17 17 17 17 17 17 17 17 17 17 17 17 16 16 16 16 16 16 16 16
19 18 18 18 18 18 18 18 18 17 17 17 17 17 17 17 17 17 17 17 17 17 17 17 17 17 17 17 17 17 17 17 17 16 16 16 16 16 16 16 16 16 16
19 18 18 18 18 18 17 17 17 17 17 17 17 17 17 17 17 17 17 17 17 17 17 17 17 17 17 17 17 16 16 16 16 16 16 16 16 16 16 16 16 16 16
18 18 18 18 18 17 17 17 17 17 17 17 17 17 17 16 17 17 16 16 16 16 16 16 16 17 16 16 16 16 16 16 16 16 16 16 16 16 16 16 16 16 15
18 18 18 18 17 17 17 17 17 17 17 17 16 16 16 16 16 16 16 16 16 16 16 16 16 16 16 16 16 16 16 16 15 15 15 16 16 16 15 15 15 15 15
18 18 18 18 17 17 17 17 17 17 17 17 16 16 16 16 16 16 16 16 16 16 16 15 15 15 15 15 15 15 15 15 15 15 15 15 15 15 15 15 15 15 15
18 18 18 18 18 17 17 17 17 17 17 16 16 16 16 16 16 16 16 15 15 15 15 15 15 15 15 15 15 15 14 14 14 15 15 15 15 15 15 15 15 15 15
18 18 18 18 18 17 17 17 17 17 17 16 16 16 16 16 15 15 15 15 15 15 15 15 14 15 15 14 14 14 14 14 14 14 14 14 14 14 14 14 14 14 14
18 18 18 17 17 17 17 17 17 17 16 16 16 16 16 16 15 15 15 15 15 15 15 14 14 15 14 14 14 14 14 13 14 14 14 14 14 14 14 14 14 14 14
18 17 17 17 17 17 17 17 17 16 16 16 16 16 16 15 15 15 15 15 15 15 15 14 14 14 14 14 14 14 13 13 13 13 13 13 13 13 13 13 14 14 14
17 17 17 17 17 17 17 17 16 16 16 16 16 15 15 15 15 15 15 14 14 14 14 14 14 14 14 14 14 13 13 13 13 13 13 13 13 13 13 13 13 13 13
Wind_Speed
1 1 0 1 2 2 3 3 2 2 2 3 3 3 3 3 5 6 7 11 13 13 12 11 10 10 11 11 11 11 11 11 10 10 11 11 11 11 10 9 10 10 9
1 1 1 0 1 1 1 2 2 2 2 1 1 1 2 3 3 5 7 10 13 13 13 12 11 11 11 11 11 11 11 11 11 11 11 11 11 11 11 11 10 10 9
1 1 1 1 0 1 2 1 1 1 1 2 2 3 2 3 3 4 6 7 9 12 13 13 13 12 11 11 11 11 11 11 12 11 11 12 12 12 12 11 11 10 10
1 1 1 1 1 1 1 1 1 0 0 1 2 3 3 3 4 5 6 7 8 9 12 15 14 13 13 12 12 11 12 12 12 11 12 12 12 12 12 12 12 11 11
2 2 1 0 1 0 0 0 1 0 1 1 3 3 3 3 3 4 5 6 8 8 9 13 16 14 14 13 12 12 12 12 12 12 12 12 11 12 12 12 12 12 11
1 1 2 1 1 1 1 1 0 0 1 1 2 2 2 3 3 3 4 5 7 8 9 9 11 13 15 14 13 13 13 13 13 12 12 12 12 12 12 12 12 12 12
1 0 1 1 1 1 1 0 0 0 1 1 1 1 2 3 3 4 4 4 4 6 6 8 9 9 10 14 15 14 13 13 12 13 13 13 13 13 12 12 12 12 12
1 0 1 0 0 1 1 0 0 1 1 1 1 1 1 1 1 2 3 4 4 4 5 7 8 8 8 9 11 14 14 12 11 11 11 12 12 12 12 12 12 12 12
1 1 1 1 0 0 1 1 1 1 1 2 1 1 1 1 2 2 3 2 2 3 3 4 6 7 8 8 9 12 13 12 11 11 11 10 10 10 10 11 11 11 11
1 1 1 1 1 1 1 1 0 1 1 1 1 1 1 1 1 1 2 1 2 3 4 4 4 5 7 6 8 10 12 12 11 11 11 10 10 11 11 12 12 12 11
2 1 2 1 1 1 1 1 1 1 1 1 2 2 2 1 2 1 2 2 2 2 3 3 3 4 6 6 7 9 12 12 11 11 11 11 11 11 12 12 12 12 12
1 1 1 1 0 0 1 1 1 1 1 2 2 2 2 1 2 1 2 3 3 3 3 2 3 3 5 6 7 9 12 13 11 11 10 11 11 11 12 13 13 13 13
2 1 1 1 0 1 1 0 1 2 1 2 3 3 3 3 2 2 2 3 3 3 2 2 3 3 4 6 7 11 12 13 12 12 11 11 11 12 12 13 13 13 13
1 1 1 1 1 1 1 1 1 2 1 3 4 4 3 3 3 3 2 2 3 3 3 3 2 2 3 4 7 10 9 12 13 13 13 12 12 12 12 12 12 13 12
1 1 1 1 0 0 1 1 1 2 2 2 3 3 3 3 3 3 3 3 3 4 4 3 1 2 2 3 7 8 7 10 12 13 13 13 13 12 12 12 12 12 12
0 1 1 1 1 1 1 2 2 2 3 3 3 3 3 3 3 3 3 3 3 3 4 3 3 2 2 2 5 6 7 9 12 13 14 14 13 13 13 12 12 12 12
1 1 1 1 2 2 2 2 4 3 3 3 3 3 4 4 4 4 4 3 3 3 4 4 3 2 2 2 3 5 6 7 8 13 14 15 14 13 13 13 13 13 13
3 2 2 2 3 2 2 3 4 4 3 3 3 3 4 4 4 4 4 4 4 4 4 5 4 3 3 3 4 4 4 6 6 9 13 15 14 14 13 13 13 13 13
3 3 3 3 3 3 2 3 3 3 4 3 3 3 4 3 4 4 5 5 5 5 4 5 5 3 3 3 3 4 4 3 5 6 9 13 14 14 14 14 13 13 13
3 3 3 3 3 3 3 3 3 4 4 4 4 4 4 4 4 5 5 5 5 5 5 4 4 3 3 3 2 3 3 3 4 5 4 6 10 13 14 14 14 14 14
4 3 3 3 4 4 3 2 3 4 3 4 4 4 4 4 5 5 5 4 5 4 4 4 4 3 3 3 2 2 3 3 3 3 2 3 3 5 7 11 13 13 14
3 3 3 4 5 4 2 1 2 4 4 4 4 4 5 4 5 6 8 7 6 6 4 4 4 4 5 4 3 3 3 3 4 2 3 4 3 4 4 6 10 13 13
4 4 4 4 4 3 2 3 4 5 5 5 5 5 6 6 4 4 5 7 7 9 8 6 6 7 6 5 4 4 4 4 5 4 3 5 3 4 3 5 9 12 13
3 4 4 4 4 4 4 4 5 6 6 6 6 6 6 5 5 4 5 5 6 6 7 6 7 7 7 6 5 6 5 5 5 4 4 5 4 4 4 3 8 11 12
4 4 4 4 4 4 5 4 4 5 5 6 7 6 6 4 5 5 5 6 6 6 8 9 9 9 9 9 6 4 4 4 5 4 3 3 3 3 3 3 4 8 10
4 5 4 4 4 4 4 4 4 4 5 6 6 5 5 4 4 4 5 6 7 6 6 7 6 7 7 8 8 7 5 5 5 4 4 3 3 2 2 2 2 3 4
Wind_Direction
147 124 152 198 186 172 177 183 186 183 205 207 199 196 202 196 176 165 168 182 181 184 189 194 198 202 208 213 216 218 220 224 223 223 221 221 221 219 219 218 218 217 216
106 144 154 183 152 153 174 185 180 183 200 194 194 196 203 204 198 170 167 183 187 185 191 198 202 206 210 212 215 218 223 226 226 224 221 220 220 219 220 220 217 216 216
137 139 125 133 135 189 181 171 191 189 179 196 207 214 206 199 201 182 174 177 185 195 199 202 204 208 211 214 217 219 224 227 227 223 220 220 218 217 218 216 215 215 216
146 148 104 107 130 161 147 170 193 266 222 231 227 226 210 199 204 201 194 190 189 196 203 207 207 210 213 217 220 222 226 227 225 223 223 222 220 216 215 215 214 214 213
138 132 123 129 133 92 33 273 91 215 218 238 241 224 218 212 215 216 207 196 193 189 189 202 207 210 214 219 222 225 226 225 223 224 225 223 217 215 215 215 213 212 215
113 129 148 171 189 140 130 58 308 283 234 249 269 263 237 212 215 212 221 206 193 196 193 194 200 210 215 220 225 227 226 225 224 225 224 222 219 217 215 214 214 215 217
128 58 53 162 201 146 113 133 193 267 252 264 282 292 262 231 216 206 216 214 199 196 194 193 203 203 204 216 224 226 226 226 225 223 223 221 221 219 217 217 217 218 218
169 181 111 281 68 130 128 179 201 254 286 282 287 304 310 308 286 243 210 212 206 196 203 207 202 199 203 194 210 219 224 226 222 219 220 219 218 220 220 221 222 221 219
133 37 34 346 28 141 159 196 222 243 265 284 292 306 304 322 316 263 248 224 206 209 218 210 202 206 212 198 196 205 210 212 217 219 217 215 216 216 220 224 223 219 219
98 87 78 36 21 15 26 256 182 276 251 281 301 295 260 263 275 305 290 267 237 228 225 230 218 198 210 203 192 187 196 203 211 215 215 217 220 220 220 220 221 223 223
108 85 100 71 41 22 357 342 5 339 326 315 314 314 321 291 260 264 290 304 288 257 245 233 208 202 203 201 188 181 188 197 209 215 216 220 225 225 222 220 223 225 225
114 94 110 98 82 53 333 319 314 318 313 320 317 307 301 293 293 275 279 284 275 266 242 234 222 203 201 196 200 180 187 194 202 211 216 223 229 229 225 225 228 228 226
130 128 136 141 167 181 243 337 305 304 320 319 308 303 301 293 282 276 269 279 291 288 262 243 223 206 211 187 180 182 191 196 204 211 218 223 228 231 231 230 231 231 229
105 126 150 137 180 228 263 288 262 283 299 289 290 295 296 294 294 281 262 274 291 288 272 268 237 212 208 186 183 188 191 200 207 213 219 225 228 231 233 232 231 232 232
178 133 132 110 93 283 268 274 269 274 269 276 284 291 288 293 298 294 283 262 257 278 279 269 270 248 213 200 184 192 199 207 209 215 221 225 226 227 229 231 232 230 230
91 166 166 168 234 255 271 268 266 279 273 270 265 276 288 289 290 284 284 285 271 264 274 280 275 263 242 244 191 207 214 213 211 216 220 221 222 222 224 227 229 227 226
188 219 236 238 244 246 262 267 265 274 279 285 291 296 290 284 295 297 291 285 281 274 272 284 283 272 244 235 209 227 231 218 214 220 220 219 220 222 224 225 227 227 225
204 216 236 252 249 248 259 265 274 283 287 290 294 293 294 291 290 289 291 288 284 276 271 280 280 263 250 229 221 231 244 237 227 227 219 217 219 221 223 224 224 224 223
207 208 230 252 266 268 263 267 273 272 272 274 276 276 284 289 288 286 283 288 286 283 268 266 273 266 262 260 247 248 256 246 251 242 222 218 219 220 222 224 224 222 221
212 207 229 248 260 264 267 274 272 267 269 270 272 272 271 273 278 281 278 277 279 282 280 276 276 280 276 270 252 251 259 249 257 261 245 226 220 222 226 226 224 222 220
223 213 230 241 252 250 254 266 273 267 268 273 277 277 276 273 275 279 282 285 285 282 282 281 281 284 291 297 284 275 275 272 268 255 243 240 217 219 227 228 226 223 219
234 228 235 243 250 259 264 291 283 284 278 277 278 279 277 263 274 269 267 271 276 274 272 274 277 278 278 280 280 282 276 284 282 263 251 257 234 231 219 212 211 212 213
237 239 245 249 250 237 228 249 274 271 271 268 270 268 277 284 285 290 281 271 269 265 256 260 269 271 272 271 268 270 270 268 270 266 270 267 255 247 232 227 201 201 205
241 248 251 254 262 251 230 245 268 256 262 265 266 261 261 265 271 274 280 281 278 278 267 257 253 260 267 264 252 252 259 271 273 268 260 264 259 255 258 229 206 200 202
244 247 246 247 256 255 237 246 264 269 269 274 272 267 261 258 256 266 271 277 280 282 285 274 260 258 257 257 248 254 256 262 275 272 253 255 268 272 262 252 224 205 202
245 250 249 255 258 261 227 233 252 273 282 283 279 266 258 261 263 256 266 275 277 283 293 295 282 268 260 254 241 233 237 249 266 269 250 239 260 272 276 267 248 214 212
Height
1523 1523 1523 1524 1524 1524 1525 1525 1526 1526 1527 1528 1529 1530 1531 1532 1532 1532 1532 1532 1533 1534 1535 1536 1536 1537 1537 1538 1539 1539 1540 1541 1542 1542 1543 1543 1544 1545 1546 1547 1548 1549 1550
1522 1523 1523 1524 1524 1524 1525 1525 1526 1526 1526 1527 1528 1529 1530 1530 1531 1531 1531 1531 1531 1532 1533 1534 1534 1535 1535 1536 1536 1537 1537 1538 1539 1540 1540 1541 1542 1542 1543 1544 1545 1546 1547
1522 1522 1523 1523 1524 1524 1525 1525 1525 1526 1526 1527 1527 1528 1528 1529 1529 1530 1530 1530 1530 1531 1531 1532 1533 1533 1533 1534 1534 1535 1535 1536 1537 1537 1538 1539 1539 1540 1541 1542 1542 1543 1544
1522 1522 1523 1523 1524 1524 1524 1525 1525 1525 1525 1525 1526 1527 1527 1528 1528 1528 1528 1528 1528 1529 1529 1530 1531 1531 1531 1532 1532 1532 1533 1534 1534 1535 1535 1536 1537 1537 1538 1539 1540 1540 1541
1522 1522 1522 1523 1523 1524 1524 1524 1524 1524 1524 1524 1525 1525 1526 1526 1526 1527 1527 1527 1527 1527 1527 1528 1529 1529 1530 1530 1530 1530 1530 1531 1532 1532 1533 1533 1534 1535 1535 1536 1537 1537 1538
1522 1522 1522 1522 1523 1523 1523 1523 1523 1523 1523 1523 1524 1524 1525 1525 1525 1525 1525 1525 1525 1526 1526 1526 1527 1527 1527 1528 1528 1528 1528 1528 1529 1530 1530 1531 1531 1532 1533 1533 1534 1535 1535
1522 1522 1522 1522 1523 1523 1522 1522 1522 1523 1523 1523 1523 1523 1523 1524 1524 1524 1524 1523 1524 1524 1525 1525 1524 1525 1525 1525 1526 1526 1526 1526 1526 1527 1527 1528 1529 1529 1530 1530 1531 1531 1532
1522 1523 1522 1522 1522 1522 1522 1522 1522 1522 1523 1523 1523 1522 1523 1524 1522 1523 1522 1522 1523 1523 1523 1523 1523 1523 1522 1523 1523 1523 1523 1523 1524 1524 1524 1525 1525 1526 1526 1527 1528 1528 1529
1523 1522 1522 1522 1522 1522 1522 1522 1522 1522 1522 1523 1523 1523 1523 1522 1522 1521 1521 1521 1521 1521 1521 1522 1522 1521 1521 1521 1520 1520 1520 1521 1521 1521 1521 1522 1522 1523 1523 1523 1524 1525 1526
1523 1522 1522 1521 1521 1521 1521 1521 1522 1521 1522 1522 1522 1522 1522 1522 1522 1520 1520 1520 1520 1520 1520 1520 1520 1519 1519 1519 1518 1518 1518 1518 1518 1518 1519 1519 1519 1519 1520 1520 1521 1522 1523
1522 1522 1521 1521 1521 1521 1521 1521 1521 1521 1521 1521 1521 1521 1521 1521 1521 1520 1519 1519 1519 1518 1518 1518 1517 1517 1517 1517 1516 1516 1516 1516 1516 1515 1516 1516 1517 1517 1517 1517 1518 1519 1519
1522 1521 1521 1520 1520 1520 1520 1520 1520 1520 1520 1520 1520 1520 1520 1520 1519 1519 1518 1518 1517 1516 1516 1515 1515 1515 1515 1514 1514 1514 1514 1514 1513 1513 1513 1514 1514 1513 1514 1514 1515 1515 1516
1521 1521 1521 1520 1520 1520 1520 1520 1520 1520 1519 1519 1519 1519 1519 1519 1518 1518 1517 1516 1515 1515 1514 1514 1513 1513 1513 1512 1512 1512 1512 1511 1511 1511 1511 1511 1511 1511 1511 1511 1512 1512 1512
1521 1521 1520 1520 1519 1519 1519 1519 1519 1518 1518 1518 1518 1517 1517 1517 1517 1516 1516 1515 1514 1513 1512 1512 1511 1511 1510 1510 1509 1509 1509 1509 1508 1508 1508 1508 1507 1507 1508 1508 1508 1509 1509
1520 1520 1519 1519 1519 1518 1518 1518 1518 1518 1517 1517 1516 1516 1515 1515 1515 1514 1514 1513 1513 1511 1510 1509 1509 1508 1508 1508 1507 1506 1506 1506 1505 1505 1505 1505 1504 1504 1504 1504 1505 1505 1505
1518 1518 1518 1518 1517 1517 1517 1517 1516 1516 1516 1515 1515 1514 1513 1513 1512 1511 1511 1510 1510 1509 1508 1507 1507 1506 1505 1505 1504 1503 1503 1502 1502 1502 1502 1501 1501 1500 1500 1500 1500 1501 1501
1516 1516 1516 1516 1516 1515 1515 1515 1515 1514 1514 1513 1512 1512 1511 1510 1509 1509 1508 1508 1507 1506 1504 1503 1503 1503 1502 1502 1501 1500 1499 1499 1498 1498 1498 1498 1497 1497 1496 1496 1496 1496 1497
1514 1514 1514 1514 1514 1514 1513 1513 1512 1512 1511 1511 1510 1509 1508 1508 1506 1506 1505 1504 1503 1503 1502 1500 1499 1499 1499 1498 1497 1497 1496 1496 1495 1495 1494 1494 1493 1493 1492 1492 1492 1492 1492
1512 1512 1512 1512 1512 1512 1511 1511 1510 1509 1509 1508 1507 1506 1505 1505 1503 1502 1502 1501 1500 1499 1498 1497 1496 1496 1495 1495 1494 1493 1492 1492 1492 1491 1491 1490 1489 1489 1488 1488 1488 1487 1487
1510 1510 1510 1510 1510 1510 1509 1508 1507 1507 1506 1505 1504 1503 1502 1501 1500 1499 1498 1497 1496 1495 1494 1493 1492 1491 1491 1491 1490 1489 1488 1488 1488 1488 1487 1486 1485 1485 1484 1484 1483 1483 1482
1509 1508 1508 1508 1508 1507 1506 1506 1505 1504 1503 1502 1501 1500 1499 1498 1497 1496 1495 1494 1492 1491 1490 1489 1488 1488 1487 1486 1486 1486 1485 1484 1484 1484 1483 1482 1481 1480 1480 1479 1479 1478 1478
1506 1506 1505 1505 1505 1504 1503 1503 1502 1501 1500 1499 1497 1496 1496 1494 1493 1492 1491 1490 1489 1488 1486 1485 1484 1484 1483 1483 1483 1482 1481 1480 1479 1480 1479 1478 1478 1476 1476 1475 1474 1474 1474
1503 1502 1502 1502 1501 1500 1500 1499 1498 1497 1496 1495 1494 1493 1492 1491 1490 1488 1487 1486 1485 1484 1483 1482 1481 1480 1479 1479 1479 1478 1477 1476 1475 1475 1475 1473 1473 1472 1472 1471 1470 1470 1470
1499 1499 1499 1498 1498 1497 1496 1495 1495 1494 1492 1491 1490 1489 1488 1486 1485 1484 1483 1482 1480 1480 1479 1478 1476 1475 1476 1475 1475 1474 1473 1472 1471 1471 1471 1469 1469 1468 1468 1468 1467 1466 1466
1496 1495 1495 1495 1495 1493 1493 1492 1491 1490 1489 1487 1486 1485 1484 1482 1481 1480 1479 1477 1476 1475 1474 1473 1472 1471 1471 1470 1470 1469 1468 1467 1466 1466 1467 1466 1464 1464 1464 1463 1463 1463 1462
1492 1492 1492 1492 1491 1490 1489 1488 1487 1486 1485 1483 1482 1481 1480 1479 1477 1476 1475 1473 1471 1470 1469 1468 1468 1467 1466 1465 1465 1464 1463 1463 1462 1461 1461 1462 1461 1460 1459 1459 1459 1458 1458